Shreveport, LA

10:57 PM CST on February 12, 2016 (GMT -0600)
Shreveport Regional

Weather History for KSHV - December, 2012

Change the Weather History Date:

Monday, December 31, 2012

  Actual Average Record
Temperature  
Mean Temperature 47 °F 46 °F  
Max Temperature 54 °F 57 °F 81 °F (1951)
Min Temperature 39 °F 36 °F 12 °F (1983)
Degree Days  
Heating Degree Days 18 19  
Month to date heating degree days 393 531  
Since 1 July heating degree days 753 902  
Cooling Degree Days 0 0  
Month to date cooling degree days 20 7  
Year to date cooling degree days 2954 2481  
Moisture  
Dew Point 44 °F    
Average Humidity 81    
Maximum Humidity 100    
Minimum Humidity 62    
Precipitation  
Precipitation 1.36 in 0.13 in 2.46 in (1949)
Month to date precipitation 5.66 4.77  
Year to date precipitation 51.68 51.41  
Snow  
Snow 0.00 in - - ()
Month to date snowfall T  
Since 1 July snowfall T  
Snow Depth 0.00 in    
Sea Level Pressure  
Sea Level Pressure 30.08 in    
Wind  
Wind Speed 7 mph (SE)    
Max Wind Speed 17 mph    
Max Gust Speed 23 mph    
Visibility 6 miles    
Events Rain    
T = Trace of Precipitation, MM = Missing Value Source: NWS Daily Summary

Daily Weather History Graph

Daily Weather History Graph

Search for Another Location

Airport or City:

Trip Planner

Search our weather history database for the weather conditions in past years. The results will help you decide how hot, cold, wet, or windy it might be!

Date:

Astronomy

Dec. 31, 2012 Rise Set
Actual Time 7:16 AM CST 5:20 PM CST
Civil Twilight 6:49 AM CST 5:47 PM CST
Nautical Twilight 6:19 AM CST 6:18 PM CST
Astronomical Twilight 5:49 AM CST 6:48 PM CST
Moon 8:39 PM CST (12/31) 9:09 AM CST (12/31)
Length of Visible Light 10h 57m
Length of Day
10h 03m
Waning Gibbous, 90% of the Moon is Illuminated
Dec 31
Waning Gibbous
Jan 4
Last Quarter
Jan 11
New
Jan 18
First Quarter
Jan 26
Full

Hourly Weather History & Observations

Time (CST) Temp. Windchill Dew Point Humidity Pressure Visibility Wind Dir Wind Speed Gust Speed Precip Events Conditions
12:56 AM 41.0 °F 38.0 °F 30.0 °F 65% 30.29 in 10.0 mi SSE 4.6 mph - N/A   Overcast
1:56 AM 41.0 °F 36.4 °F 30.0 °F 65% 30.27 in 10.0 mi SE 6.9 mph - N/A   Overcast
2:56 AM 41.0 °F 36.4 °F 30.0 °F 65% 30.26 in 10.0 mi SSE 6.9 mph - N/A   Overcast
3:56 AM 42.1 °F 39.2 °F 30.9 °F 65% 30.25 in 10.0 mi SE 4.6 mph - N/A   Overcast
4:56 AM 42.1 °F 38.4 °F 30.9 °F 65% 30.23 in 10.0 mi SE 5.8 mph - N/A   Overcast
5:56 AM 42.1 °F 38.4 °F 30.9 °F 65% 30.20 in 10.0 mi ESE 5.8 mph - N/A   Overcast
6:56 AM 42.1 °F 38.4 °F 30.9 °F 65% 30.19 in 10.0 mi ESE 5.8 mph - N/A   Overcast
7:56 AM 42.8 °F 37.5 °F 32.0 °F 66% 30.18 in 10.0 mi SE 9.2 mph - N/A   Overcast
8:53 AM 44.6 °F 40.2 °F 33.8 °F 66% 30.17 in 10.0 mi SE 8.1 mph - N/A   Overcast
8:56 AM 44.1 °F 39.5 °F 34.0 °F 68% 30.17 in 10.0 mi SE 8.1 mph - N/A   Overcast
9:56 AM 45.0 °F 40.1 °F 37.0 °F 74% 30.15 in 10.0 mi SE 9.2 mph - 0.00 in   Overcast
10:56 AM 48.0 °F - 39.9 °F 74% 30.14 in 9.0 mi SSE 12.7 mph - 0.00 in   Overcast
11:56 AM 50.0 °F - 42.1 °F 74% 30.11 in 10.0 mi SSE 12.7 mph - 0.00 in   Overcast
12:56 PM 51.1 °F - 46.9 °F 86% 30.06 in 8.0 mi SSE 10.4 mph - 0.01 in Rain Light Rain
1:56 PM 52.0 °F - 46.9 °F 83% 30.01 in 10.0 mi SSE 12.7 mph - 0.00 in Rain Light Rain
2:56 PM 51.1 °F - 48.9 °F 92% 29.99 in 4.0 mi SSE 12.7 mph - 0.02 in Rain Light Rain
3:56 PM 52.0 °F - 51.1 °F 97% 29.99 in 7.0 mi South 9.2 mph - 0.03 in   Overcast
4:39 PM 53.6 °F - 51.8 °F 94% 29.97 in 5.0 mi SSE 8.1 mph - 0.02 in Rain Light Rain
4:56 PM 53.1 °F - 52.0 °F 96% 29.96 in 5.0 mi SSE 10.4 mph - 0.02 in Rain Light Rain
5:03 PM 53.6 °F - 51.8 °F 94% 29.97 in 6.0 mi South 9.2 mph - 0.00 in Rain Light Rain
5:26 PM 53.6 °F - 51.8 °F 94% 29.99 in 5.0 mi NNW 12.7 mph 17.3 mph 0.01 in Rain Light Rain
5:56 PM 54.0 °F - 53.1 °F 97% 30.00 in 3.0 mi NW 10.4 mph - 0.14 in Rain Heavy Rain
6:38 PM 53.6 °F - 53.6 °F 100% 29.99 in 3.0 mi North 5.8 mph - 0.20 in Rain Heavy Rain
6:56 PM 53.1 °F - 53.1 °F 100% 29.99 in 3.0 mi Calm Calm - 0.28 in Rain Rain
7:56 PM 52.0 °F - 51.1 °F 97% 30.00 in 5.0 mi NNW 4.6 mph - 0.21 in Rain Light Rain
8:56 PM 51.1 °F - 50.0 °F 96% 30.01 in 3.0 mi North 8.1 mph - 0.09 in Rain Rain
9:26 PM 50.0 °F - 50.0 °F 100% 30.01 in 3.0 mi Calm Calm - 0.13 in Rain Rain
9:56 PM 51.1 °F - 50.0 °F 96% 30.01 in 3.0 mi Calm Calm - 0.22 in Rain Rain
10:46 PM 51.8 °F - 51.8 °F 100% 30.01 in 3.0 mi Calm Calm - 0.24 in Rain Rain
10:48 PM 51.8 °F - 51.8 °F 100% 30.01 in 3.0 mi Calm Calm - 0.24 in Rain Rain
10:56 PM 51.1 °F - 51.1 °F 100% 30.01 in 3.0 mi Calm Calm - 0.27 in Rain Rain
11:08 PM 51.8 °F - 50.0 °F 94% 30.01 in 3.0 mi Calm Calm - 0.04 in Rain Rain
11:41 PM 51.8 °F - 50.0 °F 94% 30.02 in 3.0 mi NNW 4.6 mph - 0.06 in Rain Light Rain
11:56 PM 51.1 °F - 50.0 °F 96% 30.01 in 3.0 mi North 8.1 mph - 0.07 in Rain Light Rain